Location: Harbor View
(36.2448°N, 86.5797°W)
Time: 07:15:04
(UTC+00:00)

COSMO-SKYMED 1 - Pass Details

Date: 10 March 2021
Orbit: 621 x 623 km, 97.9° (Epoch: 13 April)

Event Time Altitude Azimuth Distance (km) Brightness Sun altitude
Rises 09:44:30 0° 117° (ESE) 2,895 6.6 -28.6°
Reaches altitude 10° 09:48:08 10° 84° (E) 1,994 6.1 -27.9°
Maximum altitude 09:49:35 12° 65° (ENE) 1,896 6.0 -27.6°
Drops below altitude 10° 09:51:01 10° 45° (NE) 1,999 5.9 -27.4°
Sets 09:54:41 0° 13° (NNE) 2,911 6.4 -26.7°
